Zurück zum Katalog

NOAA 16 DEB

AktivPO
NORAD 41053·DEBRIS·🇺🇸 United States

Gestartet Sep 21, 2000 von Vandenberg Space Force Base

Loading…

Nächste Überflüge (nächste 24 Stunden)

TLE

AktuellSource: Space-Track

Epoche: Sep 14, 2026, 14:13 UTC

1 41053U 00055L   26257.59299708  .00004618  00000-0  10643-2 0  9999
2 41053  98.9902 127.7740 0020731 196.3493 163.7036 14.55723554563379

Verfolge NOAA 16 DEB in Echtzeit mit AllMySat

Download on the App Store